Stevens Point, WI

12:55 AM CDT on October 01, 2016 (GMT -0500)
Stevens Point Municipal

Weather History for KSTE - April, 2014

Change the Weather History Date:

Sunday, April 13, 2014

  Actual Average Record
Temperature  
Mean Temperature 40 °F -  
Max Temperature 48 °F 53 °F 78 °F (1968)
Min Temperature 31 °F 33 °F 15 °F (1950)
Degree Days  
Heating Degree Days 26    
Moisture  
Dew Point 39 °F    
Average Humidity 93    
Maximum Humidity 100    
Minimum Humidity 78    
Precipitation  
Precipitation 0.61 in - - ()
Sea Level Pressure  
Sea Level Pressure 29.74 in    
Wind  
Wind Speed 6 mph (NNE)    
Max Wind Speed 17 mph    
Max Gust Speed 25 mph    
Visibility 6 miles    
Events Rain , Snow , Thunderstorm    
Averages and records for this station are not official NWS values.
T = Trace of Precipitation, MM = Missing Value Source: NWS Daily Summary

Daily Weather History Graph

Daily Weather History Graph

Search for Another Location

Airport or City:

Trip Planner

Search our weather history database for the weather conditions in past years. The results will help you decide how hot, cold, wet, or windy it might be!

Date:

Astronomy

Apr. 13, 2014 Rise Set
Actual Time 6:17 AM CDT 7:40 PM CDT
Civil Twilight 5:47 AM CDT 8:10 PM CDT
Nautical Twilight 5:10 AM CDT 8:47 PM CDT
Astronomical Twilight 4:32 AM CDT 9:26 PM CDT
Moon 6:15 PM CDT (4/13) 5:20 AM CDT (4/13)
Length of Visible Light 14h 23m
Length of Day
13h 22m
Waxing Gibbous, 97% of the Moon is Illuminated
Apr 13
Waxing Gibbous
Apr 15
Full
Apr 22
Last Quarter
Apr 29
New
May 6
First Quarter

Hourly Weather History & Observations

Time (CDT) Temp. Windchill Dew Point Humidity Pressure Visibility Wind Dir Wind Speed Gust Speed Precip Events Conditions
12:15 AM 37.0 °F 30.4 °F 36.9 °F 99% 29.73 in 1.2 mi NE 9.2 mph - N/A   Overcast
12:55 AM 37.0 °F 32.4 °F 36.9 °F 99% 29.75 in 1.5 mi ENE 5.8 mph - N/A   Overcast
1:15 AM 36.9 °F 30.7 °F 36.9 °F 100% 29.73 in 1.0 mi NE 8.1 mph - N/A   Overcast
1:35 AM 36.7 °F 32.0 °F 36.7 °F 100% 29.74 in 1.0 mi ENE 5.8 mph - N/A   Overcast
1:55 AM 36.7 °F 31.2 °F 36.7 °F 100% 29.73 in 1.0 mi ENE 6.9 mph - N/A Snow Light Snow
2:15 AM 36.5 °F 30.3 °F 36.5 °F 100% 29.71 in 1.5 mi NE 8.1 mph - N/A Thunderstorm Overcast
2:35 AM 36.5 °F 31.0 °F 36.5 °F 100% 29.70 in 2.0 mi East 6.9 mph - N/A   Light Drizzle
2:55 AM 36.5 °F 30.3 °F 36.5 °F 100% 29.70 in 1.8 mi NE 8.1 mph - N/A   Overcast
3:15 AM 36.5 °F 31.8 °F 36.5 °F 100% 29.71 in 1.8 mi North 5.8 mph - N/A   Overcast
3:35 AM 36.1 °F 30.6 °F 36.1 °F 100% 29.72 in 1.5 mi North 6.9 mph - N/A   Overcast
3:55 AM 36.5 °F - 36.5 °F 100% 29.75 in 2.0 mi Calm Calm - N/A   Overcast
4:15 AM 36.5 °F - 36.5 °F 100% 29.75 in 2.5 mi Calm Calm - N/A   Overcast
4:35 AM 36.5 °F - 36.5 °F 100% 29.73 in 1.5 mi Calm Calm - N/A   Overcast
5:15 AM 36.1 °F 33.5 °F 36.1 °F 100% 29.73 in 1.2 mi North 3.5 mph - N/A   Overcast
5:35 AM 36.1 °F - 36.1 °F 100% 29.74 in 1.5 mi Calm Calm - N/A   Overcast
5:55 AM 36.1 °F 33.5 °F 36.1 °F 100% 29.75 in 2.5 mi NNE 3.5 mph - N/A   Overcast
6:15 AM 36.1 °F 32.3 °F 36.1 °F 100% 29.74 in 2.0 mi NNE 4.6 mph - N/A   Overcast
6:35 AM 36.1 °F 32.3 °F 36.1 °F 100% 29.74 in 2.0 mi North 4.6 mph - N/A   Overcast
6:55 AM 36.1 °F 31.4 °F 36.1 °F 100% 29.74 in 2.5 mi NNE 5.8 mph - N/A   Overcast
7:15 AM 36.5 °F 31.0 °F 36.5 °F 100% 29.75 in 5.0 mi NE 6.9 mph - N/A   Overcast
7:35 AM 36.9 °F - 36.7 °F 99% 29.76 in 10.0 mi Calm Calm - N/A   Overcast
7:55 AM 37.2 °F 33.6 °F 36.9 °F 99% 29.76 in 10.0 mi North 4.6 mph - N/A   Overcast
8:15 AM 37.8 °F 33.3 °F 37.4 °F 99% 29.78 in 10.0 mi North 5.8 mph - N/A   Overcast
8:35 AM 38.3 °F 33.9 °F 37.4 °F 97% 29.78 in 10.0 mi North 5.8 mph - N/A   Overcast
8:55 AM 38.5 °F 35.0 °F 37.4 °F 96% 29.78 in 10.0 mi North 4.6 mph - N/A   Overcast
9:15 AM 39.2 °F 35.0 °F 37.4 °F 93% 29.78 in 10.0 mi North 5.8 mph - N/A   Overcast
9:35 AM 39.9 °F 35.1 °F 37.8 °F 92% 29.78 in 10.0 mi North 6.9 mph - N/A   Overcast
9:55 AM 40.3 °F 35.5 °F 38.3 °F 93% 29.76 in 10.0 mi NNE 6.9 mph - N/A   Overcast
10:15 AM 41.2 °F 38.2 °F 39.0 °F 92% 29.76 in 10.0 mi NNE 4.6 mph - N/A   Overcast
10:35 AM 41.9 °F 40.0 °F 39.2 °F 90% 29.75 in 10.0 mi NE 3.5 mph - N/A   Overcast
10:55 AM 43.5 °F 40.9 °F 40.3 °F 88% 29.76 in 10.0 mi NE 4.6 mph - N/A   Overcast
11:15 AM 45.1 °F 43.7 °F 41.0 °F 85% 29.78 in 10.0 mi ENE 3.5 mph - N/A   Overcast
11:35 AM 46.6 °F - 41.5 °F 83% 29.80 in 10.0 mi Calm Calm - N/A   Overcast
11:55 AM 46.9 °F - 41.2 °F 80% 29.81 in 10.0 mi SE 3.5 mph - N/A   Overcast
12:15 PM 46.2 °F 44.1 °F 41.2 °F 83% 29.82 in 10.0 mi SE 4.6 mph - N/A   Overcast
12:35 PM 46.6 °F - 41.7 °F 83% 29.80 in 10.0 mi Calm Calm - N/A   Overcast
12:55 PM 47.3 °F - 41.9 °F 82% 29.79 in 10.0 mi ENE 3.5 mph - N/A   Overcast
1:15 PM 47.3 °F - 41.9 °F 82% 29.78 in 10.0 mi ENE 3.5 mph - N/A   Overcast
1:35 PM 47.8 °F - 41.9 °F 80% 29.78 in 10.0 mi Calm Calm - N/A   Overcast
1:55 PM 48.4 °F - 42.3 °F 79% 29.78 in 10.0 mi Calm Calm - N/A   Overcast
2:15 PM 47.8 °F - 42.1 °F 80% 29.78 in 10.0 mi West 3.5 mph - N/A   Overcast
2:35 PM 48.2 °F - 41.9 °F 79% 29.78 in 10.0 mi Calm Calm - N/A   Overcast
2:55 PM 48.6 °F - 41.9 °F 78% 29.76 in 10.0 mi East 4.6 mph - N/A   Overcast
3:15 PM 48.4 °F - 41.9 °F 78% 29.76 in 10.0 mi ENE 4.6 mph - N/A   Overcast
3:35 PM 48.2 °F - 42.1 °F 79% 29.74 in 10.0 mi East 4.6 mph - N/A   Overcast
3:55 PM 48.2 °F - 42.1 °F 79% 29.73 in 10.0 mi NE 9.2 mph - N/A   Overcast
4:15 PM 47.3 °F - 43.0 °F 85% 29.72 in 10.0 mi NE 8.1 mph - N/A   Light Drizzle
4:35 PM 46.9 °F - 43.2 °F 87% 29.72 in 10.0 mi NE 8.1 mph - N/A Rain Light Rain
4:55 PM 46.4 °F 42.4 °F 43.5 °F 90% 29.71 in 10.0 mi NE 8.1 mph - N/A Rain Rain
5:15 PM 45.7 °F 42.7 °F 44.1 °F 94% 29.71 in 7.0 mi NNE 5.8 mph - 0.01 in Rain Rain
5:35 PM 45.5 °F 43.2 °F 44.2 °F 95% 29.70 in 5.0 mi North 4.6 mph - 0.04 in Rain Rain
5:55 PM 45.1 °F 40.8 °F 43.7 °F 95% 29.70 in 7.0 mi NNE 8.1 mph - 0.06 in Rain Rain
6:15 PM 44.6 °F 42.2 °F 43.2 °F 95% 29.70 in 5.0 mi North 4.6 mph - 0.02 in Rain Rain
6:35 PM 44.1 °F 41.5 °F 42.8 °F 95% 29.70 in 7.0 mi North 4.6 mph - 0.05 in Rain Rain
6:55 PM 43.9 °F 40.5 °F 42.8 °F 96% 29.70 in 5.0 mi North 5.8 mph - 0.08 in Rain Rain
7:15 PM 43.7 °F 38.6 °F 42.4 °F 95% 29.69 in 5.0 mi NNE 9.2 mph - 0.04 in Rain Rain
7:35 PM 43.2 °F 37.4 °F 42.1 °F 96% 29.68 in 7.0 mi North 10.4 mph - 0.08 in Rain Rain
7:55 PM 41.9 °F 35.4 °F 41.0 °F 97% 29.68 in 7.0 mi North 11.5 mph - 0.12 in Rain Rain
8:15 PM 41.2 °F 34.1 °F 39.9 °F 95% 29.69 in 7.0 mi North 12.7 mph 21.9 mph 0.03 in Rain Rain
8:35 PM 39.9 °F 32.9 °F 38.5 °F 95% 29.69 in 7.0 mi North 11.5 mph 17.3 mph 0.07 in Rain Rain
8:55 PM 38.3 °F 30.5 °F 37.0 °F 95% 29.70 in 7.0 mi North 12.7 mph 20.7 mph 0.10 in Rain Rain
9:15 PM 37.4 °F 28.5 °F 36.0 °F 95% 29.71 in 7.0 mi North 15.0 mph 20.7 mph 0.03 in Rain Rain
9:35 PM 36.7 °F 26.9 °F 35.1 °F 94% 29.72 in 4.0 mi NNE 17.3 mph 24.2 mph 0.07 in Rain Rain
9:55 PM 35.6 °F 28.0 °F 33.8 °F 93% 29.72 in 3.0 mi North 10.4 mph 25.3 mph 0.12 in Rain Heavy Rain
10:15 PM 33.8 °F 23.9 °F 32.4 °F 94% 29.72 in 3.0 mi North 15.0 mph 19.6 mph 0.05 in Rain Heavy Rain
10:35 PM 32.0 °F 23.6 °F 31.1 °F 96% 29.71 in 2.5 mi North 10.4 mph 16.1 mph 0.08 in Rain Heavy Rain
10:55 PM 31.5 °F 22.9 °F 30.9 °F 98% 29.69 in 2.0 mi North 10.4 mph 17.3 mph 0.10 in   Overcast
11:15 PM 31.6 °F 22.1 °F 31.1 °F 98% 29.67 in 3.0 mi North 12.7 mph 18.4 mph 0.01 in   Overcast
11:35 PM 31.8 °F 23.3 °F 31.1 °F 97% 29.67 in 4.0 mi North 10.4 mph 17.3 mph 0.02 in   Overcast
11:55 PM 31.8 °F 22.3 °F 31.1 °F 97% 29.65 in 5.0 mi North 12.7 mph 17.3 mph 0.03 in   Overcast